Location: Dob?e?
(49.9411°N, 15.1496°E)
Time: 21:32:38
(UTC+00:00)

STARLINK-1316 - Visible Passes

Search period start: 29 September 2020 00:00
Search period end: 09 October 2020 00:00
Orbit: 549 x 550 km, 53.0° (Epoch: 29 September)

Date Brightness Start Highest point End Pass type
(mag) Time Alt. Az. Time Alt. Az. Time Alt. Az.
01 Oct 6.4 03:20:24 10° SSE 03:22:12 13° SE 03:24:00 10° ESE visible
02 Oct 6.1 03:13:55 10° S 03:16:32 16° SE 03:19:09 10° E visible
03 Oct 5.7 03:08:10 12° S 03:10:53 21° SE 03:14:01 10° E visible
04 Oct 5.3 03:03:21 19° S 03:05:15 26° SE 03:08:45 10° E visible
05 Oct 4.9 02:58:27 27° S 02:59:40 33° SE 03:03:24 10° ENE visible
06 Oct 4.4 02:53:28 38° S 02:54:06 41° SE 02:58:01 10° ENE visible
06 Oct 3.7 04:29:27 10° W 04:33:35 70° NNW 04:37:44 10° ENE visible
07 Oct 4.0 02:48:26 51° SSE 02:48:34 51° SSE 02:52:36 10° ENE visible
07 Oct 3.8 04:24:05 10° W 04:28:09 63° NNW 04:32:17 10° ENE visible
08 Oct 3.9 02:43:20 61° SE 02:43:20 61° SE 02:47:10 10° ENE visible
08 Oct 3.9 04:18:59 12° W 04:22:43 59° N 04:26:50 10° ENE visible
